TimeCST,TemperatureF,Dew PointF,Humidity,Sea Level PressureIn,VisibilityMPH,Wind Direction,Wind SpeedMPH,Gust SpeedMPH,PrecipitationIn,Events,Conditions,WindDirDegrees,DateUTC
12:08 AM,19.2,17.2,92,29.79,10.0,West,9.2,-,N/A,,Scattered Clouds,280,2013-02-13 06:08:00
12:28 AM,19.2,17.1,91,29.79,10.0,West,8.1,-,N/A,,Mostly Cloudy,270,2013-02-13 06:28:00
12:49 AM,19.2,17.4,93,29.78,10.0,West,8.1,-,N/A,,Overcast,270,2013-02-13 06:49:00
1:08 AM,19.2,17.2,92,29.78,10.0,West,9.2,-,N/A,,Scattered Clouds,260,2013-02-13 07:08:00
1:28 AM,18.0,16.0,92,29.78,10.0,West,9.2,-,N/A,,Clear,270,2013-02-13 07:28:00
1:47 AM,17.4,15.6,93,29.78,10.0,West,8.1,-,N/A,,Clear,270,2013-02-13 07:47:00
1:57 AM,16.7,14.9,93,29.77,10.0,West,6.9,-,N/A,,Clear,270,2013-02-13 07:57:00
2:25 AM,15.8,14.0,93,29.78,10.0,West,5.8,-,N/A,,Clear,260,2013-02-13 08:25:00
2:50 AM,14.0,12.2,93,29.77,10.0,West,5.8,-,N/A,,Clear,260,2013-02-13 08:50:00
3:05 AM,14.0,12.2,93,29.77,10.0,WSW,5.8,-,N/A,,Clear,250,2013-02-13 09:05:00
3:25 AM,14.0,14.0,100,29.76,10.0,West,6.9,-,N/A,,Clear,260,2013-02-13 09:25:00
3:34 AM,14.0,13.1,96,29.76,10.0,West,5.8,-,N/A,,Clear,260,2013-02-13 09:34:00
3:48 AM,14.0,13.3,97,29.76,10.0,West,4.6,-,N/A,,Scattered Clouds,260,2013-02-13 09:48:00
4:08 AM,14.0,13.1,96,29.76,10.0,WNW,5.8,-,N/A,,Mostly Cloudy,290,2013-02-13 10:08:00
4:28 AM,15.3,14.4,96,29.76,10.0,West,8.1,-,N/A,,Mostly Cloudy,270,2013-02-13 10:28:00
4:48 AM,15.8,14.7,95,29.75,10.0,West,6.9,-,N/A,,Overcast,270,2013-02-13 10:48:00
5:08 AM,17.1,16.0,96,29.73,10.0,WSW,3.5,-,N/A,,Overcast,240,2013-02-13 11:08:00
5:28 AM,19.2,18.1,96,29.74,10.0,WSW,5.8,-,N/A,,Overcast,250,2013-02-13 11:28:00
5:48 AM,19.2,18.0,95,29.72,10.0,WSW,4.6,-,N/A,,Overcast,240,2013-02-13 11:48:00
6:08 AM,19.4,18.1,95,29.72,10.0,West,3.5,-,N/A,,Overcast,260,2013-02-13 12:08:00
6:28 AM,20.3,19.2,96,29.71,10.0,Calm,Calm,-,N/A,,Overcast,0,2013-02-13 12:28:00
6:48 AM,20.3,19.0,95,29.71,10.0,WSW,3.5,-,N/A,,Overcast,240,2013-02-13 12:48:00
7:09 AM,21.7,20.3,94,29.71,10.0,Calm,Calm,-,N/A,,Overcast,0,2013-02-13 13:09:00
7:28 AM,21.7,20.3,94,29.70,10.0,Calm,Calm,-,N/A,,Overcast,0,2013-02-13 13:28:00
7:48 AM,21.7,20.3,94,29.71,10.0,Calm,Calm,-,N/A,,Overcast,0,2013-02-13 13:48:00
8:01 AM,21.9,20.3,93,29.70,10.0,Calm,Calm,-,N/A,,Overcast,0,2013-02-13 14:01:00
8:25 AM,21.2,19.4,93,29.70,10.0,South,3.5,-,N/A,,Scattered Clouds,170,2013-02-13 14:25:00
8:45 AM,21.2,19.4,93,29.70,10.0,SSW,3.5,-,N/A,,Clear,210,2013-02-13 14:45:00
8:52 AM,21.9,20.1,93,29.70,10.0,SSW,3.5,-,N/A,,Clear,200,2013-02-13 14:52:00
9:08 AM,24.3,21.7,90,29.70,-9999.0,SSW,3.5,-,N/A,,Unknown,200,2013-02-13 15:08:00
9:28 AM,26.6,23.7,89,29.70,-9999.0,SSW,4.6,-,N/A,,Unknown,210,2013-02-13 15:28:00
9:49 AM,29.3,25.7,86,29.69,-9999.0,Calm,Calm,-,N/A,,Unknown,0,2013-02-13 15:49:00
10:08 AM,29.3,25.3,85,29.69,-9999.0,Calm,Calm,-,N/A,,Unknown,0,2013-02-13 16:08:00
10:28 AM,29.3,25.5,86,29.69,-9999.0,West,5.8,-,N/A,,Unknown,280,2013-02-13 16:28:00
10:48 AM,29.3,25.0,84,29.69,-9999.0,WSW,3.5,-,N/A,,Unknown,240,2013-02-13 16:48:00
11:08 AM,31.8,26.6,81,29.69,-9999.0,South,3.5,-,N/A,,Clear,180,2013-02-13 17:08:00
11:28 AM,31.8,26.8,82,29.68,-9999.0,SSW,3.5,-,N/A,,Scattered Clouds,210,2013-02-13 17:28:00
11:47 AM,32.0,27.3,83,29.67,-9999.0,Calm,Calm,-,0.02,,Mostly Cloudy,0,2013-02-13 17:47:00
12:09 PM,34.0,29.5,84,29.66,-9999.0,SSW,3.5,-,N/A,,Overcast,200,2013-02-13 18:09:00
12:28 PM,34.0,28.9,82,29.66,-9999.0,SW,5.8,-,0.02,,Mostly Cloudy,230,2013-02-13 18:28:00
12:37 PM,34.0,28.6,81,29.66,-9999.0,SW,5.8,-,0.02,,Scattered Clouds,230,2013-02-13 18:37:00
1:08 PM,34.3,29.1,81,29.64,-9999.0,SW,5.8,-,N/A,,Mostly Cloudy,230,2013-02-13 19:08:00
1:28 PM,35.2,29.5,80,29.64,-9999.0,SSW,8.1,-,0.02,,Mostly Cloudy,210,2013-02-13 19:28:00
1:48 PM,35.2,30.2,82,29.63,-9999.0,SSW,5.8,-,0.03,,Mostly Cloudy,200,2013-02-13 19:48:00
2:08 PM,35.2,30.2,82,29.63,-9999.0,SSW,5.8,-,N/A,,Overcast,210,2013-02-13 20:08:00
2:28 PM,36.1,31.1,82,29.62,-9999.0,SSW,5.8,-,N/A,,Overcast,210,2013-02-13 20:28:00
2:48 PM,36.5,31.5,82,29.62,-9999.0,SSW,6.9,-,0.01,,Overcast,210,2013-02-13 20:48:00
3:08 PM,36.5,32.0,84,29.62,-9999.0,SSW,4.6,-,N/A,,Overcast,210,2013-02-13 21:08:00
3:28 PM,36.5,31.6,83,29.61,-9999.0,Calm,Calm,-,N/A,,Overcast,0,2013-02-13 21:28:00
3:48 PM,36.5,31.3,81,29.61,-9999.0,SE,3.5,-,N/A,,Overcast,140,2013-02-13 21:48:00
4:07 PM,36.5,32.0,84,29.60,-9999.0,Calm,Calm,-,N/A,,Overcast,0,2013-02-13 22:07:00
4:28 PM,36.5,32.4,85,29.60,-9999.0,Calm,Calm,-,N/A,,Unknown,0,2013-02-13 22:28:00
4:48 PM,36.5,32.9,87,29.59,-9999.0,Calm,Calm,-,N/A,,Overcast,0,2013-02-13 22:48:00
5:08 PM,35.2,32.4,89,29.59,-9999.0,Calm,Calm,-,N/A,,Overcast,0,2013-02-13 23:08:00
5:28 PM,34.0,32.0,92,29.59,-9999.0,Calm,Calm,-,N/A,,Overcast,0,2013-02-13 23:28:00
5:48 PM,34.0,32.9,96,29.59,-9999.0,South,3.5,-,N/A,,Unknown,180,2013-02-13 23:48:00
6:08 PM,34.0,32.4,94,29.58,-9999.0,South,6.9,-,N/A,,Unknown,190,2013-02-14 00:08:00
6:28 PM,34.0,32.9,96,29.57,-9999.0,SSW,4.6,-,N/A,,Unknown,210,2013-02-14 00:28:00
6:48 PM,34.0,33.3,97,29.57,-9999.0,SSW,3.5,-,N/A,,Overcast,210,2013-02-14 00:48:00
7:08 PM,34.0,33.8,99,29.57,-9999.0,Calm,Calm,-,N/A,,Overcast,0,2013-02-14 01:08:00
7:28 PM,34.0,34.0,100,29.56,-9999.0,Calm,Calm,-,N/A,,Overcast,0,2013-02-14 01:28:00
7:48 PM,34.0,34.0,100,29.56,-9999.0,Calm,Calm,-,N/A,,Overcast,0,2013-02-14 01:48:00
8:09 PM,34.0,34.2,100,29.55,-9999.0,SW,3.5,-,N/A,,Overcast,220,2013-02-14 02:09:00
8:28 PM,34.0,34.2,100,29.55,-9999.0,WSW,3.5,-,N/A,,Overcast,240,2013-02-14 02:28:00
8:48 PM,34.0,34.2,100,29.55,-9999.0,WSW,6.9,-,N/A,,Overcast,250,2013-02-14 02:48:00
9:08 PM,34.0,34.2,100,29.55,-9999.0,West,8.1,-,N/A,,Overcast,260,2013-02-14 03:08:00
9:28 PM,34.0,34.0,100,29.55,-9999.0,West,9.2,-,N/A,,Unknown,270,2013-02-14 03:28:00
9:48 PM,34.0,34.0,100,29.55,-9999.0,West,9.2,-,N/A,,Overcast,280,2013-02-14 03:48:00
10:08 PM,34.0,34.0,100,29.55,-9999.0,WNW,9.2,-,N/A,,Overcast,290,2013-02-14 04:08:00
10:12 PM,34.0,34.0,100,29.55,-9999.0,WNW,10.4,-,N/A,,Overcast,290,2013-02-14 04:12:00
10:45 PM,33.8,33.8,100,29.56,-9999.0,NW,9.2,-,N/A,,Overcast,310,2013-02-14 04:45:00
11:05 PM,33.8,33.8,100,29.57,-9999.0,NW,12.7,-,N/A,,Overcast,320,2013-02-14 05:05:00
11:25 PM,33.8,33.8,100,29.57,-9999.0,NNW,11.5,-,N/A,,Overcast,330,2013-02-14 05:25:00
11:50 PM,33.8,33.8,100,29.59,-9999.0,NNW,12.7,18.4,N/A,,Overcast,340,2013-02-14 05:50:00